This is the latest recevied weather packets stored in our database for station/object DL9LA-13. If no packets are shown the sender has not sent any weather packets the latest 10 day(s).
| Time | Temp. | Humidity | Pressure | Rain* | Wind** | Luminosity | Snow |
|---|---|---|---|---|---|---|---|
| 1788301790 | 20° C | 70% | 977 hPa | - | - | - | - |
| 1788301187 | 20° C | 70% | 977 hPa | - | - | - | - |
| 1788300583 | 20° C | 70% | 977 hPa | - | - | - | - |
| 1788293340 | 20° C | 70% | 977 hPa | - | - | - | - |
| 1788285492 | 23.89° C | 46% | 976 hPa | - | - | - | - |
| 1788283078 | 24.44° C | 43% | 976 hPa | - | - | - | - |
| 1788282474 | 25° C | 42% | 975 hPa | - | - | - | - |
| 1788280059 | 25.56° C | 40% | 975 hPa | - | - | - | - |
| 1788276438 | 26.67° C | 39% | 976 hPa | - | - | - | - |
| 1788274023 | 26.67° C | 40% | 976 hPa | - | - | - | - |
| 1788271609 | 26.11° C | 39% | 976 hPa | - | - | - | - |
| 1788271005 | 26.11° C | 41% | 976 hPa | - | - | - | - |
| 1788268590 | 26.11° C | 40% | 976 hPa | - | - | - | - |
| 1788267987 | 26.67° C | 40% | 976 hPa | - | - | - | - |
| 1788263157 | 25.56° C | 42% | 977 hPa | - | - | - | - |
| 1788259550 | 23.89° C | 49% | 977 hPa | - | - | - | - |
| 1788258932 | 23.33° C | 46% | 977 hPa | - | - | - | - |
| 1788257121 | 22.78° C | 46% | 977 hPa | - | - | - | - |
| 1788255914 | 24.44° C | 46% | 977 hPa | - | - | - | - |
| 1788255310 | 23.89° C | 48% | 977 hPa | - | - | - | - |
| 1788248066 | 22.22° C | 53% | 977 hPa | - | - | - | - |
| 1788235390 | 17.22° C | 78% | 977 hPa | - | - | - | - |
| 1788231768 | 17.78° C | 78% | 977 hPa | - | - | - | - |
| 1788228750 | 17.78° C | 79% | 977 hPa | - | - | - | - |
| 1788216677 | 18.89° C | 66% | 976 hPa | - | - | - | - |
* Rain since midnight (hover to see other rain measurements)
** Current wind speed in m/s (hover to see current wind gust speed)